Year,Month,Day,Hour,Minute,Value (Times are PST for temperature in C)
2018,07,05,00,00,18.10
2018,07,05,00,01,18.10
2018,07,05,00,02,18.10
2018,07,05,00,03,18.10
2018,07,05,00,04,18.00
2018,07,05,00,05,18.00
2018,07,05,00,06,18.00
2018,07,05,00,07,18.00
2018,07,05,00,08,18.00
2018,07,05,00,09,18.00
2018,07,05,00,10,18.00
2018,07,05,00,11,18.00
2018,07,05,00,12,18.00
2018,07,05,00,13,17.90
2018,07,05,00,14,17.90
2018,07,05,00,15,17.90
2018,07,05,00,16,17.90
2018,07,05,00,17,17.90
2018,07,05,00,18,17.90
2018,07,05,00,19,17.90
2018,07,05,00,20,17.90
2018,07,05,00,21,17.90
2018,07,05,00,22,17.80
2018,07,05,00,23,17.80
2018,07,05,00,24,17.80
2018,07,05,00,25,17.80
2018,07,05,00,26,17.80
2018,07,05,00,27,17.80
2018,07,05,00,28,17.80
2018,07,05,00,29,17.80
2018,07,05,00,30,17.80
2018,07,05,00,31,17.80
2018,07,05,00,32,17.80
2018,07,05,00,33,17.70
2018,07,05,00,34,17.70
2018,07,05,00,35,17.70
2018,07,05,00,36,17.80
2018,07,05,00,37,17.80
2018,07,05,00,38,17.70
2018,07,05,00,39,17.70
2018,07,05,00,40,17.70
2018,07,05,00,41,17.70
2018,07,05,00,42,17.70
2018,07,05,00,43,17.80
2018,07,05,00,44,17.80
2018,07,05,00,45,17.80
2018,07,05,00,46,17.80
2018,07,05,00,47,17.80
2018,07,05,00,48,17.80
2018,07,05,00,49,17.70
2018,07,05,00,50,17.70
2018,07,05,00,51,17.70
2018,07,05,00,52,17.70
2018,07,05,00,53,17.70
2018,07,05,00,54,17.70
2018,07,05,00,55,17.60
2018,07,05,00,56,17.60
2018,07,05,00,57,17.60
2018,07,05,00,58,17.60
2018,07,05,00,59,17.60
2018,07,05,01,00,17.50
2018,07,05,01,01,17.50
2018,07,05,01,02,17.50
2018,07,05,01,03,17.50
2018,07,05,01,04,17.50
2018,07,05,01,05,17.50
2018,07,05,01,06,17.40
2018,07,05,01,07,17.40
2018,07,05,01,08,17.40
2018,07,05,01,09,17.40
2018,07,05,01,10,17.30
2018,07,05,01,11,17.30
2018,07,05,01,12,17.30
2018,07,05,01,13,17.30
2018,07,05,01,14,17.30
2018,07,05,01,15,17.30
2018,07,05,01,16,17.30
2018,07,05,01,17,17.30
2018,07,05,01,18,17.30
2018,07,05,01,19,17.20
2018,07,05,01,20,17.20
2018,07,05,01,21,17.20
2018,07,05,01,22,17.20
2018,07,05,01,23,17.20
2018,07,05,01,24,17.20
2018,07,05,01,25,17.20
2018,07,05,01,26,17.20
2018,07,05,01,27,17.20
2018,07,05,01,28,17.20
2018,07,05,01,29,17.20
2018,07,05,01,30,17.20
2018,07,05,01,31,17.20
2018,07,05,01,32,17.20
2018,07,05,01,33,17.20
2018,07,05,01,34,17.20
2018,07,05,01,35,17.20
2018,07,05,01,36,17.20
2018,07,05,01,37,17.20
2018,07,05,01,38,17.20
2018,07,05,01,39,17.20
2018,07,05,01,40,17.20
2018,07,05,01,41,17.20
2018,07,05,01,42,17.20
2018,07,05,01,43,17.20
2018,07,05,01,44,17.20
2018,07,05,01,45,17.20
2018,07,05,01,46,17.20
2018,07,05,01,47,17.20
2018,07,05,01,48,17.20
2018,07,05,01,49,17.20
2018,07,05,01,50,17.20
2018,07,05,01,51,17.20
2018,07,05,01,52,17.20
2018,07,05,01,53,17.20
2018,07,05,01,54,17.20
2018,07,05,01,55,17.20
2018,07,05,01,56,17.20
2018,07,05,01,57,17.20
2018,07,05,01,58,17.20
2018,07,05,01,59,17.20
2018,07,05,02,00,17.20
2018,07,05,02,01,17.20
2018,07,05,02,02,17.20
2018,07,05,02,03,17.20
2018,07,05,02,04,17.20
2018,07,05,02,05,17.20
2018,07,05,02,06,17.20
2018,07,05,02,07,17.20
2018,07,05,02,08,17.10
2018,07,05,02,09,17.10
2018,07,05,02,10,17.10
2018,07,05,02,11,17.10
2018,07,05,02,12,17.10
2018,07,05,02,13,17.10
2018,07,05,02,14,17.10
2018,07,05,02,15,17.10
2018,07,05,02,16,17.10
2018,07,05,02,17,17.10
2018,07,05,02,18,17.10
2018,07,05,02,19,17.10
2018,07,05,02,20,17.10
2018,07,05,02,21,17.10
2018,07,05,02,22,17.00
2018,07,05,02,23,17.00
2018,07,05,02,24,17.00
2018,07,05,02,25,17.00
2018,07,05,02,26,17.00
2018,07,05,02,27,17.00
2018,07,05,02,28,17.00
2018,07,05,02,29,17.00
2018,07,05,02,30,17.00
2018,07,05,02,31,16.90
2018,07,05,02,32,16.90
2018,07,05,02,33,16.90
2018,07,05,02,34,16.90
2018,07,05,02,35,16.90
2018,07,05,02,36,16.90
2018,07,05,02,37,16.80
2018,07,05,02,38,16.80
2018,07,05,02,39,16.80
2018,07,05,02,40,16.80
2018,07,05,02,41,16.80
2018,07,05,02,42,16.80
2018,07,05,02,43,16.70
2018,07,05,02,44,16.70
2018,07,05,02,45,16.70
2018,07,05,02,46,16.70
2018,07,05,02,47,16.70
2018,07,05,02,48,16.70
2018,07,05,02,49,16.70
2018,07,05,02,50,16.70
2018,07,05,02,51,16.80
2018,07,05,02,52,16.80
2018,07,05,02,53,16.80
2018,07,05,02,54,16.80
2018,07,05,02,55,16.80
2018,07,05,02,56,16.80
2018,07,05,02,57,16.80
2018,07,05,02,58,16.80
2018,07,05,02,59,16.70
2018,07,05,03,00,16.70
2018,07,05,03,01,16.70
2018,07,05,03,02,16.70
2018,07,05,03,03,16.70
2018,07,05,03,04,16.70
2018,07,05,03,05,16.70
2018,07,05,03,06,16.70
2018,07,05,03,07,16.70
2018,07,05,03,08,16.70
2018,07,05,03,09,16.70
2018,07,05,03,10,16.70
2018,07,05,03,11,16.70
2018,07,05,03,12,16.70
2018,07,05,03,13,16.70
2018,07,05,03,14,16.70
2018,07,05,03,15,16.70
2018,07,05,03,16,16.70
2018,07,05,03,17,16.70
2018,07,05,03,18,16.70
2018,07,05,03,19,16.60
2018,07,05,03,20,16.60
2018,07,05,03,21,16.60
2018,07,05,03,22,16.60
2018,07,05,03,23,16.60
2018,07,05,03,24,16.60
2018,07,05,03,25,16.60
2018,07,05,03,26,16.60
2018,07,05,03,27,16.60
2018,07,05,03,28,16.60
2018,07,05,03,29,16.60
2018,07,05,03,30,16.60
2018,07,05,03,31,16.50
2018,07,05,03,32,16.50
2018,07,05,03,33,16.50
2018,07,05,03,34,16.50
2018,07,05,03,35,16.50
2018,07,05,03,36,16.50
2018,07,05,03,37,16.50
2018,07,05,03,38,16.40
2018,07,05,03,39,16.40
2018,07,05,03,40,16.40
2018,07,05,03,41,16.40
2018,07,05,03,42,16.40
2018,07,05,03,43,16.40
2018,07,05,03,44,16.40
2018,07,05,03,45,16.40
2018,07,05,03,46,16.30
2018,07,05,03,47,16.30
2018,07,05,03,48,16.30
2018,07,05,03,49,16.30
2018,07,05,03,50,16.30
2018,07,05,03,51,16.30
2018,07,05,03,52,16.20
2018,07,05,03,53,16.20
2018,07,05,03,54,16.20
2018,07,05,03,55,16.20
2018,07,05,03,56,16.10
2018,07,05,03,57,16.10
2018,07,05,03,58,16.10
2018,07,05,03,59,16.10
2018,07,05,04,00,16.10
2018,07,05,04,01,16.10
2018,07,05,04,02,16.00
2018,07,05,04,03,16.00
2018,07,05,04,04,16.00
2018,07,05,04,05,16.00
2018,07,05,04,06,16.00
2018,07,05,04,07,15.90
2018,07,05,04,08,15.90
2018,07,05,04,09,15.90
2018,07,05,04,10,15.90
2018,07,05,04,11,15.90
2018,07,05,04,12,15.80
2018,07,05,04,13,15.80
2018,07,05,04,14,15.80
2018,07,05,04,15,15.80
2018,07,05,04,16,15.80
2018,07,05,04,17,15.80
2018,07,05,04,18,15.70
2018,07,05,04,19,15.70
2018,07,05,04,20,15.70
2018,07,05,04,21,15.70
2018,07,05,04,22,15.60
2018,07,05,04,23,15.60
2018,07,05,04,24,15.60
2018,07,05,04,25,15.60
2018,07,05,04,26,15.50
2018,07,05,04,27,15.50
2018,07,05,04,28,15.50
2018,07,05,04,29,15.50
2018,07,05,04,30,15.40
2018,07,05,04,31,15.40
2018,07,05,04,32,15.40
2018,07,05,04,33,15.30
2018,07,05,04,34,15.30
2018,07,05,04,35,15.30
2018,07,05,04,36,15.30
2018,07,05,04,37,15.30
2018,07,05,04,38,15.30
2018,07,05,04,39,15.20
2018,07,05,04,40,15.20
2018,07,05,04,41,15.20
2018,07,05,04,42,15.20
2018,07,05,04,43,15.20
2018,07,05,04,44,15.10
2018,07,05,04,45,15.10
2018,07,05,04,46,15.10
2018,07,05,04,47,15.10
2018,07,05,04,48,15.10
2018,07,05,04,49,15.00
2018,07,05,04,50,15.00
2018,07,05,04,51,15.00
2018,07,05,04,52,15.00
2018,07,05,04,53,15.00
2018,07,05,04,54,15.00
2018,07,05,04,55,15.00
2018,07,05,04,56,15.00
2018,07,05,04,57,14.90
2018,07,05,04,58,14.90
2018,07,05,04,59,14.90
2018,07,05,05,00,14.90
2018,07,05,05,01,14.90
2018,07,05,05,02,14.80
2018,07,05,05,03,14.80
2018,07,05,05,04,14.80
2018,07,05,05,05,14.80
2018,07,05,05,06,14.80
2018,07,05,05,07,14.70
2018,07,05,05,08,14.70
2018,07,05,05,09,14.70
2018,07,05,05,10,14.70
2018,07,05,05,11,14.70
2018,07,05,05,12,14.70
2018,07,05,05,13,14.60
2018,07,05,05,14,14.60
2018,07,05,05,15,14.60
2018,07,05,05,16,14.60
2018,07,05,05,17,14.60
2018,07,05,05,18,14.50
2018,07,05,05,19,14.50
2018,07,05,05,20,14.50
2018,07,05,05,21,14.40
2018,07,05,05,22,14.40
2018,07,05,05,23,14.40
2018,07,05,05,24,14.40
2018,07,05,05,25,14.40
2018,07,05,05,26,14.30
2018,07,05,05,27,14.30
2018,07,05,05,28,14.30
2018,07,05,05,29,14.30
2018,07,05,05,30,14.30
2018,07,05,05,31,14.30
2018,07,05,05,32,14.30
2018,07,05,05,33,14.20
2018,07,05,05,34,14.20
2018,07,05,05,35,14.20
2018,07,05,05,36,14.20
2018,07,05,05,37,14.20
2018,07,05,05,38,14.20
2018,07,05,05,39,14.20
2018,07,05,05,40,14.20
2018,07,05,05,41,14.20
2018,07,05,05,42,14.20
2018,07,05,05,43,14.20
2018,07,05,05,44,14.10
2018,07,05,05,45,14.10
2018,07,05,05,46,14.10
2018,07,05,05,47,14.10
2018,07,05,05,48,14.10
2018,07,05,05,49,14.10
2018,07,05,05,50,14.00
2018,07,05,05,51,14.00
2018,07,05,05,52,14.00
2018,07,05,05,53,14.00
2018,07,05,05,54,14.00
2018,07,05,05,55,14.00
2018,07,05,05,56,13.90
2018,07,05,05,57,13.90
2018,07,05,05,58,13.90
2018,07,05,05,59,13.90
2018,07,05,06,00,13.90
2018,07,05,06,01,13.90
2018,07,05,06,02,13.90
2018,07,05,06,03,13.90
2018,07,05,06,04,13.90
2018,07,05,06,05,13.90
2018,07,05,06,06,13.80
2018,07,05,06,07,13.80
2018,07,05,06,08,13.80
2018,07,05,06,09,13.80
2018,07,05,06,10,13.80
2018,07,05,06,11,13.80
2018,07,05,06,12,13.80
2018,07,05,06,13,13.80
2018,07,05,06,14,13.80
2018,07,05,06,15,13.80
2018,07,05,06,16,13.80
2018,07,05,06,17,13.80
2018,07,05,06,18,13.80
2018,07,05,06,19,13.80
2018,07,05,06,20,13.80
2018,07,05,06,21,13.80
2018,07,05,06,22,13.80
2018,07,05,06,23,13.70
2018,07,05,06,24,13.70
2018,07,05,06,25,13.70
2018,07,05,06,26,13.70
2018,07,05,06,27,13.70
2018,07,05,06,28,13.70
2018,07,05,06,29,13.70
2018,07,05,06,30,13.70
2018,07,05,06,31,13.70
2018,07,05,06,32,13.70
2018,07,05,06,33,13.70
2018,07,05,06,34,13.70
2018,07,05,06,35,13.70
2018,07,05,06,36,13.70
2018,07,05,06,37,13.70
2018,07,05,06,38,13.70
2018,07,05,06,39,13.70
2018,07,05,06,40,13.60
2018,07,05,06,41,13.60
2018,07,05,06,42,13.60
2018,07,05,06,43,13.60
2018,07,05,06,44,13.60
2018,07,05,06,45,13.60
2018,07,05,06,46,13.60
2018,07,05,06,47,13.60
2018,07,05,06,48,13.60
2018,07,05,06,49,13.60
2018,07,05,06,50,13.60
2018,07,05,06,51,13.60
2018,07,05,06,52,13.60
2018,07,05,06,53,13.60
2018,07,05,06,54,13.60
2018,07,05,06,55,13.60
2018,07,05,06,56,13.60
2018,07,05,06,57,13.60
2018,07,05,06,58,13.60
2018,07,05,06,59,13.60
2018,07,05,07,00,13.70
2018,07,05,07,01,13.70
2018,07,05,07,02,13.70
2018,07,05,07,03,13.70
2018,07,05,07,04,13.70
2018,07,05,07,05,13.70
2018,07,05,07,06,13.70
2018,07,05,07,07,13.70
2018,07,05,07,08,13.70
2018,07,05,07,09,13.70
2018,07,05,07,10,13.70
2018,07,05,07,11,13.70
2018,07,05,07,12,13.70
2018,07,05,07,13,13.70
2018,07,05,07,14,13.80
2018,07,05,07,15,13.80
2018,07,05,07,16,13.80
2018,07,05,07,17,13.80
2018,07,05,07,18,13.80
2018,07,05,07,19,13.80
2018,07,05,07,20,13.80
2018,07,05,07,21,13.80
2018,07,05,07,22,13.80
2018,07,05,07,23,13.80
2018,07,05,07,24,13.80
2018,07,05,07,25,13.90
2018,07,05,07,26,13.90
2018,07,05,07,27,13.90
2018,07,05,07,28,13.90
2018,07,05,07,29,13.90
2018,07,05,07,30,13.90
2018,07,05,07,31,13.90
2018,07,05,07,32,13.90
2018,07,05,07,33,13.90
2018,07,05,07,34,13.90
2018,07,05,07,35,13.90
2018,07,05,07,36,13.90
2018,07,05,07,37,13.90
2018,07,05,07,38,13.90
2018,07,05,07,39,13.90
2018,07,05,07,40,14.00
2018,07,05,07,41,14.00
2018,07,05,07,42,14.00
2018,07,05,07,43,14.00
2018,07,05,07,44,14.00
2018,07,05,07,45,14.00
2018,07,05,07,46,14.10
2018,07,05,07,47,14.10
2018,07,05,07,48,14.10
2018,07,05,07,53,14.30
2018,07,05,07,54,14.30
2018,07,05,07,55,14.40
2018,07,05,07,56,14.50
2018,07,05,07,57,14.50
2018,07,05,07,58,14.60
2018,07,05,07,59,14.70
2018,07,05,08,00,14.80
2018,07,05,08,01,14.80
2018,07,05,08,02,14.90
2018,07,05,08,03,15.00
2018,07,05,08,04,15.00
2018,07,05,08,05,15.10
2018,07,05,08,06,15.20
2018,07,05,08,07,15.30
2018,07,05,08,08,15.40
2018,07,05,08,09,15.50
2018,07,05,08,10,15.50
2018,07,05,08,11,15.60
2018,07,05,08,12,15.60
2018,07,05,08,13,15.70
2018,07,05,08,14,15.70
2018,07,05,08,15,15.70
2018,07,05,08,16,15.80
2018,07,05,08,17,15.80
2018,07,05,08,18,15.90
2018,07,05,08,19,15.90
2018,07,05,08,20,15.90
2018,07,05,08,21,16.00
2018,07,05,08,22,16.10
2018,07,05,08,23,16.10
2018,07,05,08,24,16.20
2018,07,05,08,25,16.30
2018,07,05,08,26,16.30
2018,07,05,08,27,16.30
2018,07,05,08,28,16.40
2018,07,05,08,29,16.40
2018,07,05,08,30,16.40
2018,07,05,08,31,16.40
2018,07,05,08,32,16.40
2018,07,05,08,33,16.40
2018,07,05,08,34,16.40
2018,07,05,08,35,16.40
2018,07,05,08,36,16.40
2018,07,05,08,37,16.50
2018,07,05,08,38,16.50
2018,07,05,08,39,16.50
2018,07,05,08,40,16.50
2018,07,05,08,41,16.60
2018,07,05,08,42,16.60
2018,07,05,08,43,16.70
2018,07,05,08,44,16.70
2018,07,05,08,45,16.70
2018,07,05,08,46,16.70
2018,07,05,08,47,16.80
2018,07,05,08,48,16.80
2018,07,05,08,49,16.80
2018,07,05,08,50,16.80
2018,07,05,08,51,16.80
2018,07,05,08,52,16.80
2018,07,05,08,53,16.80
2018,07,05,08,54,16.90
2018,07,05,08,55,16.90
2018,07,05,08,56,17.00
2018,07,05,08,57,17.10
2018,07,05,08,58,17.10
2018,07,05,08,59,17.10
2018,07,05,09,00,17.20
2018,07,05,09,01,17.30
2018,07,05,09,02,17.30
2018,07,05,09,03,17.30
2018,07,05,09,04,17.30
2018,07,05,09,05,17.30
2018,07,05,09,06,17.30
2018,07,05,09,07,17.30
2018,07,05,09,08,17.30
2018,07,05,09,09,17.30
2018,07,05,09,10,17.40
2018,07,05,09,11,17.40
2018,07,05,09,12,17.50
2018,07,05,09,13,17.60
2018,07,05,09,14,17.60
2018,07,05,09,15,17.70
2018,07,05,09,16,17.80
2018,07,05,09,17,17.90
2018,07,05,09,18,18.00
2018,07,05,09,19,18.00
2018,07,05,09,20,18.00
2018,07,05,09,21,18.10
2018,07,05,09,22,18.10
2018,07,05,09,23,18.10
2018,07,05,09,24,18.20
2018,07,05,09,25,18.30
2018,07,05,09,26,18.40
2018,07,05,09,27,18.40
2018,07,05,09,28,18.50
2018,07,05,09,29,18.50
2018,07,05,09,30,18.60
2018,07,05,09,31,18.60
2018,07,05,09,32,18.60
2018,07,05,09,33,18.60
2018,07,05,09,34,18.60
2018,07,05,09,35,18.60
2018,07,05,09,36,18.70
2018,07,05,09,37,18.80
2018,07,05,09,38,18.80
2018,07,05,09,39,18.90
2018,07,05,09,40,18.90
2018,07,05,09,41,19.00
2018,07,05,09,42,19.00
2018,07,05,09,43,19.10
2018,07,05,09,44,19.10
2018,07,05,09,45,19.10
2018,07,05,09,46,19.20
2018,07,05,09,47,19.20
2018,07,05,09,48,19.20
2018,07,05,09,49,19.30
2018,07,05,09,50,19.30
2018,07,05,09,51,19.30
2018,07,05,09,52,19.40
2018,07,05,09,53,19.50
2018,07,05,09,54,19.60
2018,07,05,09,55,19.60
2018,07,05,09,56,19.70
2018,07,05,09,57,19.80
2018,07,05,09,58,19.80
2018,07,05,09,59,19.90
2018,07,05,10,00,20.00
2018,07,05,10,01,20.10
2018,07,05,10,02,20.10
2018,07,05,10,03,20.10
2018,07,05,10,04,20.10
2018,07,05,10,05,20.10
2018,07,05,10,06,20.10
2018,07,05,10,07,20.20
2018,07,05,10,08,20.20
2018,07,05,10,09,20.30
2018,07,05,10,10,20.30
2018,07,05,10,11,20.30
2018,07,05,10,12,20.30
2018,07,05,10,13,20.40
2018,07,05,10,14,20.50
2018,07,05,10,15,20.60
2018,07,05,10,16,20.70
2018,07,05,10,17,20.80
2018,07,05,10,18,20.80
2018,07,05,10,19,20.90
2018,07,05,10,20,21.00
2018,07,05,10,21,21.10
2018,07,05,10,22,21.20
2018,07,05,10,23,21.30
2018,07,05,10,24,21.30
2018,07,05,10,25,21.30
2018,07,05,10,26,21.40
2018,07,05,10,27,21.40
2018,07,05,10,28,21.40
2018,07,05,10,29,21.40
2018,07,05,10,30,21.40
2018,07,05,10,31,21.40
2018,07,05,10,32,21.40
2018,07,05,10,33,21.40
2018,07,05,10,34,21.50
2018,07,05,10,35,21.50
2018,07,05,10,36,21.50
2018,07,05,10,37,21.50
2018,07,05,10,38,21.50
2018,07,05,10,39,21.60
2018,07,05,10,40,21.60
2018,07,05,10,41,21.60
2018,07,05,10,42,21.60
2018,07,05,10,43,21.60
2018,07,05,10,44,21.60
2018,07,05,10,45,21.70
2018,07,05,10,46,21.70
2018,07,05,10,47,21.80
2018,07,05,10,48,21.90
2018,07,05,10,49,21.90
2018,07,05,10,50,21.90
2018,07,05,10,51,22.00
2018,07,05,10,52,22.00
2018,07,05,10,53,22.10
2018,07,05,10,54,22.10
2018,07,05,10,55,22.20
2018,07,05,10,56,22.20
2018,07,05,10,57,22.20
2018,07,05,10,58,22.30
2018,07,05,10,59,22.30
2018,07,05,11,00,22.30
2018,07,05,11,01,22.40
2018,07,05,11,02,22.40
2018,07,05,11,03,22.50
2018,07,05,11,04,22.60
2018,07,05,11,05,22.60
2018,07,05,11,06,22.60
2018,07,05,11,07,22.60
2018,07,05,11,08,22.60
2018,07,05,11,09,22.60
2018,07,05,11,10,22.60
2018,07,05,11,11,22.60
2018,07,05,11,12,22.60
2018,07,05,11,13,22.70
2018,07,05,11,14,22.70
2018,07,05,11,15,22.70
2018,07,05,11,16,22.80
2018,07,05,11,17,22.80
2018,07,05,11,18,22.90
2018,07,05,11,19,23.00
2018,07,05,11,20,23.10
2018,07,05,11,21,23.20
2018,07,05,11,22,23.30
2018,07,05,11,23,23.30
2018,07,05,11,24,23.40
2018,07,05,11,25,23.40
2018,07,05,11,26,23.50
2018,07,05,11,27,23.50
2018,07,05,11,28,23.60
2018,07,05,11,29,23.60
2018,07,05,11,30,23.50
2018,07,05,11,31,23.50
2018,07,05,11,32,23.40
2018,07,05,11,33,23.40
2018,07,05,11,34,23.30
2018,07,05,11,35,23.20
2018,07,05,11,36,23.20
2018,07,05,11,37,23.20
2018,07,05,11,38,23.20
2018,07,05,11,39,23.20
2018,07,05,11,40,23.20
2018,07,05,11,41,23.30
2018,07,05,11,42,23.30
2018,07,05,11,43,23.40
2018,07,05,11,44,23.50
2018,07,05,11,45,23.50
2018,07,05,11,46,23.60
2018,07,05,11,47,23.60
2018,07,05,11,48,23.60
2018,07,05,11,49,23.70
2018,07,05,11,50,23.80
2018,07,05,11,51,23.80
2018,07,05,11,52,23.90
2018,07,05,11,53,23.90
2018,07,05,11,54,23.90
2018,07,05,11,55,23.90
2018,07,05,11,56,24.00
2018,07,05,11,57,24.10
2018,07,05,11,58,24.10
2018,07,05,11,59,24.10
2018,07,05,12,00,24.10
2018,07,05,12,01,24.10
2018,07,05,12,02,24.20
2018,07,05,12,03,24.20
2018,07,05,12,04,24.30
2018,07,05,12,05,24.30
2018,07,05,12,06,24.30
2018,07,05,12,07,24.30
2018,07,05,12,08,24.30
2018,07,05,12,09,24.40
2018,07,05,12,10,24.50
2018,07,05,12,11,24.60
2018,07,05,12,12,24.70
2018,07,05,12,13,24.70
2018,07,05,12,14,24.70
2018,07,05,12,15,24.80
2018,07,05,12,16,24.80
2018,07,05,12,17,24.80
2018,07,05,12,18,24.90
2018,07,05,12,19,25.00
2018,07,05,12,20,25.10
2018,07,05,12,21,25.20
2018,07,05,12,22,25.30
2018,07,05,12,23,25.40
2018,07,05,12,24,25.60
2018,07,05,12,25,25.70
2018,07,05,12,26,25.80
2018,07,05,12,27,25.80
2018,07,05,12,28,25.90
2018,07,05,12,29,26.00
2018,07,05,12,30,26.10
2018,07,05,12,31,26.10
2018,07,05,12,32,26.10
2018,07,05,12,33,26.10
2018,07,05,12,34,26.00
2018,07,05,12,35,26.00
2018,07,05,12,36,26.00
2018,07,05,12,37,25.90
2018,07,05,12,38,25.90
2018,07,05,12,39,25.80
2018,07,05,12,40,25.80
2018,07,05,12,41,25.80
2018,07,05,12,42,25.70
2018,07,05,12,43,25.70
2018,07,05,12,44,25.60
2018,07,05,12,45,25.50
2018,07,05,12,46,25.40
2018,07,05,12,47,25.30
2018,07,05,12,48,25.30
2018,07,05,12,49,25.30
2018,07,05,12,50,25.20
2018,07,05,12,51,25.10
2018,07,05,12,52,25.00
2018,07,05,12,53,25.00
2018,07,05,12,54,24.90
2018,07,05,12,55,24.90
2018,07,05,12,56,25.00
2018,07,05,12,57,24.90
2018,07,05,12,58,24.90
2018,07,05,12,59,24.80
2018,07,05,13,00,24.80
2018,07,05,13,01,24.80
2018,07,05,13,02,24.70
2018,07,05,13,03,24.70
2018,07,05,13,04,24.60
2018,07,05,13,05,24.60
2018,07,05,13,06,24.60
2018,07,05,13,07,24.50
2018,07,05,13,08,24.50
2018,07,05,13,09,24.40
2018,07,05,13,10,24.40
2018,07,05,13,11,24.40
2018,07,05,13,12,24.40
2018,07,05,13,13,24.40
2018,07,05,13,14,24.40
2018,07,05,13,15,24.40
2018,07,05,13,16,24.30
2018,07,05,13,17,24.30
2018,07,05,13,18,24.30
2018,07,05,13,19,24.30
2018,07,05,13,20,24.40
2018,07,05,13,21,24.40
2018,07,05,13,22,24.40
2018,07,05,13,23,24.50
2018,07,05,13,24,24.50
2018,07,05,13,25,24.60
2018,07,05,13,26,24.60
2018,07,05,13,27,24.50
2018,07,05,13,28,24.50
2018,07,05,13,29,24.50
2018,07,05,13,30,24.50
2018,07,05,13,31,24.50
2018,07,05,13,32,24.50
2018,07,05,13,33,24.50
2018,07,05,13,34,24.50
2018,07,05,13,35,24.60
2018,07,05,13,36,24.60
2018,07,05,13,37,24.70
2018,07,05,13,38,24.80
2018,07,05,13,39,24.80
2018,07,05,13,40,24.80
2018,07,05,13,41,24.70
2018,07,05,13,42,24.70
2018,07,05,13,43,24.70
2018,07,05,13,44,24.70
2018,07,05,13,45,24.70
2018,07,05,13,46,24.70
2018,07,05,13,47,24.70
2018,07,05,13,48,24.70
2018,07,05,13,49,24.80
2018,07,05,13,50,24.80
2018,07,05,13,51,24.80
2018,07,05,13,52,24.80
2018,07,05,13,53,24.80
2018,07,05,13,54,24.80
2018,07,05,13,55,24.80
2018,07,05,13,56,24.80
2018,07,05,13,57,24.70
2018,07,05,13,58,24.70
2018,07,05,13,59,24.70
2018,07,05,14,00,24.70
2018,07,05,14,01,24.60
2018,07,05,14,02,24.60
2018,07,05,14,03,24.50
2018,07,05,14,04,24.50
2018,07,05,14,05,24.40
2018,07,05,14,06,24.40
2018,07,05,14,07,24.40
2018,07,05,14,08,24.40
2018,07,05,14,09,24.30
2018,07,05,14,10,24.30
2018,07,05,14,11,24.30
2018,07,05,14,12,24.20
2018,07,05,14,13,24.10
2018,07,05,14,14,24.10
2018,07,05,14,15,24.10
2018,07,05,14,16,24.00
2018,07,05,14,17,23.90
2018,07,05,14,18,23.90
2018,07,05,14,19,23.90
2018,07,05,14,20,23.90
2018,07,05,14,21,23.80
2018,07,05,14,22,23.80
2018,07,05,14,23,23.70
2018,07,05,14,24,23.70
2018,07,05,14,25,23.70
2018,07,05,14,26,23.60
2018,07,05,14,27,23.60
2018,07,05,14,28,23.60
2018,07,05,14,29,23.50
2018,07,05,14,30,23.50
2018,07,05,14,31,23.40
2018,07,05,14,32,23.40
2018,07,05,14,33,23.40
2018,07,05,14,34,23.30
2018,07,05,14,35,23.20
2018,07,05,14,36,23.20
2018,07,05,14,37,23.10
2018,07,05,14,38,23.00
2018,07,05,14,39,22.90
2018,07,05,14,40,22.80
2018,07,05,14,41,22.80
2018,07,05,14,42,22.80
2018,07,05,14,43,22.70
2018,07,05,14,44,22.70
2018,07,05,14,45,22.70
2018,07,05,14,46,22.60
2018,07,05,14,47,22.60
2018,07,05,14,48,22.60
2018,07,05,14,49,22.50
2018,07,05,14,50,22.50
2018,07,05,14,51,22.50
2018,07,05,14,52,22.50
2018,07,05,14,53,22.50
2018,07,05,14,54,22.50
2018,07,05,14,55,22.50
2018,07,05,14,56,22.40
2018,07,05,14,57,22.40
2018,07,05,14,58,22.40
2018,07,05,14,59,22.40
2018,07,05,15,00,22.40
2018,07,05,15,01,22.40
2018,07,05,15,02,22.30
2018,07,05,15,03,22.30
2018,07,05,15,04,22.30
2018,07,05,15,05,22.30
2018,07,05,15,06,22.30
2018,07,05,15,07,22.30
2018,07,05,15,08,22.30
2018,07,05,15,09,22.40
2018,07,05,15,10,22.40
2018,07,05,15,11,22.40
2018,07,05,15,12,22.40
2018,07,05,15,13,22.40
2018,07,05,15,14,22.40
2018,07,05,15,15,22.40
2018,07,05,15,16,22.40
2018,07,05,15,17,22.40
2018,07,05,15,18,22.40
2018,07,05,15,19,22.40
2018,07,05,15,20,22.40
2018,07,05,15,21,22.40
2018,07,05,15,22,22.40
2018,07,05,15,23,22.40
2018,07,05,15,24,22.40
2018,07,05,15,25,22.30
2018,07,05,15,26,22.30
2018,07,05,15,27,22.20
2018,07,05,15,28,22.20
2018,07,05,15,29,22.10
2018,07,05,15,30,22.10
2018,07,05,15,31,22.10
2018,07,05,15,32,22.10
2018,07,05,15,33,22.10
2018,07,05,15,34,22.00
2018,07,05,15,35,22.00
2018,07,05,15,36,21.90
2018,07,05,15,37,21.90
2018,07,05,15,38,21.80
2018,07,05,15,39,21.80
2018,07,05,15,40,21.80
2018,07,05,15,41,21.80
2018,07,05,15,42,21.70
2018,07,05,15,43,21.70
2018,07,05,15,44,21.70
2018,07,05,15,45,21.60
2018,07,05,15,46,21.60
2018,07,05,15,47,21.60
2018,07,05,15,48,21.60
2018,07,05,15,49,21.60
2018,07,05,15,50,21.60
2018,07,05,15,51,21.60
2018,07,05,15,52,21.50
2018,07,05,15,53,21.50
2018,07,05,15,54,21.50
2018,07,05,15,55,21.50
2018,07,05,15,56,21.50
2018,07,05,15,57,21.50
2018,07,05,15,58,21.50
2018,07,05,15,59,21.50
2018,07,05,16,00,21.50
2018,07,05,16,01,21.60
2018,07,05,16,02,21.60
2018,07,05,16,03,21.50
2018,07,05,16,04,21.50
2018,07,05,16,05,21.50
2018,07,05,16,06,21.50
2018,07,05,16,07,21.40
2018,07,05,16,08,21.40
2018,07,05,16,09,21.40
2018,07,05,16,10,21.40
2018,07,05,16,11,21.40
2018,07,05,16,12,21.40
2018,07,05,16,13,21.40
2018,07,05,16,14,21.30
2018,07,05,16,15,21.30
2018,07,05,16,16,21.30
2018,07,05,16,17,21.30
2018,07,05,16,18,21.30
2018,07,05,16,19,21.30
2018,07,05,16,20,21.20
2018,07,05,16,21,21.10
2018,07,05,16,22,21.10
2018,07,05,16,23,21.00
2018,07,05,16,24,21.00
2018,07,05,16,25,20.90
2018,07,05,16,26,20.90
2018,07,05,16,27,20.90
2018,07,05,16,28,20.90
2018,07,05,16,29,20.80
2018,07,05,16,30,20.80
2018,07,05,16,31,20.80
2018,07,05,16,32,20.70
2018,07,05,16,33,20.70
2018,07,05,16,34,20.70
2018,07,05,16,35,20.70
2018,07,05,16,36,20.70
2018,07,05,16,37,20.70
2018,07,05,16,38,20.70
2018,07,05,16,39,20.60
2018,07,05,16,40,20.60
2018,07,05,16,41,20.60
2018,07,05,16,42,20.60
2018,07,05,16,43,20.60
2018,07,05,16,44,20.70
2018,07,05,16,45,20.70
2018,07,05,16,46,20.70
2018,07,05,16,47,20.70
2018,07,05,16,48,20.70
2018,07,05,16,49,20.70
2018,07,05,16,50,20.70
2018,07,05,16,51,20.80
2018,07,05,16,52,20.80
2018,07,05,16,53,20.80
2018,07,05,16,54,20.80
2018,07,05,16,55,20.80
2018,07,05,16,56,20.80
2018,07,05,16,57,20.80
2018,07,05,16,58,20.80
2018,07,05,16,59,20.80
2018,07,05,17,00,20.70
2018,07,05,17,01,20.70
2018,07,05,17,02,20.70
2018,07,05,17,03,20.70
2018,07,05,17,04,20.70
2018,07,05,17,05,20.70
2018,07,05,17,06,20.60
2018,07,05,17,07,20.70
2018,07,05,17,08,20.70
2018,07,05,17,09,20.70
2018,07,05,17,10,20.70
2018,07,05,17,11,20.70
2018,07,05,17,12,20.70
2018,07,05,17,13,20.70
2018,07,05,17,14,20.60
2018,07,05,17,15,20.60
2018,07,05,17,16,20.60
2018,07,05,17,17,20.50
2018,07,05,17,18,20.50
2018,07,05,17,19,20.40
2018,07,05,17,20,20.30
2018,07,05,17,21,20.20
2018,07,05,17,22,20.10
2018,07,05,17,23,20.00